星链-30537 (STARLINK-30537 )

导读

STARLINK-30537是美国SpaceX公司Starlink星链互联网星座中的一员,于2023年10月5日发射入轨,属于星链第二代组网卫星。它运行在低地球轨道,配备激光星间链路与先进相控阵天线,可实现全球宽带互联网接入,单星容量超百Gbps,能为偏远地区提供高速网络,支持应急通信与移动连接等多场景服务,同时具备自主轨道机动避碰能力,退役后会在大气层完全销毁减少空间碎片。

Basic Information
目录编号:
57991
目录名称:
STARLINK-30537
国际标识:
2023-153A
轨道中心:
EARTH
卫星名称:
星链-30537
卫星全名:
星链-30537 (STARLINK-30537 )
卫星状态:
在轨 (已飞行1072 天)
发射日期:
2023-10-05 UTC
国别 :
美国 (US)
星等 :
--
This satellite is enrolled in the Space Conjunction Data Service (SCDS) and the current flight risk assessment level is: High Risk
Orbit Information
数据来源 国际轨道数据
星历时间: 2026-09-11T07:17:31+0800
18小时前
查看轨道信息
半长轴: 6861.196km
偏心率: 0.0001675
轨道倾角: 43.004°
近地点辐角 272.906°
升交点赤经 100.610°
平近点角 87.160°
近地点: 481.909km
远地点: 484.209km
周期: 94.267分钟
每日圈数: 15.275767
Detailed Information
固有亮度:
5
最大亮度:
0.3
卫星平台:
Starlink v2.0 mini
覆盖范围:
全球
运营商:
太空探索技术公司
运营商所在国:
美国
制造商(研发单位):
太空探索技术公司
制造商所在国:
美国
使用方式:
暂无
Satellite Introduction
星链(Starlink)计划是由太空探索技术公司(SpaceX)提出的一个巨型低轨卫星互联网星座项目,计划在2019年至2024年间在太空搭建由约1.2万颗卫星组成的“星链”网络,其中1584颗将部署在地球上空550千米处的近地轨道,并从2020年开始工作。该卫星仍在工作。
2D Orbit Map
3D Orbit Map
Orbit Altitude Analysis Chart
Orbit Inclination Analysis Chart
Orbit Comprehensive Analysis Chart
View Comprehensive Chart
Conjunction Data List
Event ID Objects TCA Miss Dist (km) Collision Risk Probability Collision Risk Index (CRI) Action
CDM_260913-145805-799106-248721
2026-09-13T
14:58:03+0000
0.266 km
中距离
5.014789E-4 高风险 0.89
CDM_260913-215905-799106-652021
2026-09-13T
21:59:59+0000
0.461 km
远距离
1.961378E-4 高风险 0.81
CDM_260913-035605-799106-644021
2026-09-13T
03:56:31+0000
0.819 km
远距离
4.062322E-5 中风险 0.67
CDM_260913-005505-791705-799121
2026-09-13T
00:55:56+0000
0.989 km
远距离
1.840143E-5 中风险 0.6
CDM_260912-161005-799106-644021
2026-09-12T
16:10:22+0000
1.176 km
极远距离
1.180703E-5 中风险 0.56
CDM_260913-013705-799106-248721
2026-09-13T
01:37:45+0000
1.271 km
极远距离
8.770335E-6 低风险 0.54
CDM_260913-000305-799106-248722
2026-09-13T
00:03:36+0000
1.608 km
极远距离
4.046848E-6 低风险 0.47
CDM_260912-143605-799106-644022
2026-09-12T
14:36:13+0000
1.816 km
极远距离
2.905535E-6 低风险 0.44
CDM_260913-233405-799106-652021
2026-09-13T
23:34:08+0000
1.944 km
极远距离
2.407729E-6 低风险 0.43
CDM_260913-202505-799106-652021
2026-09-13T
20:25:50+0000
2.496 km
极远距离
1.399174E-6 低风险 0.38
Miss Distance Evolution Trend with All Objects
Collision Probability Evolution Trend with All Objects